Theta_e
336 339 341 342 344 348 349 351 355 358 359 356 355 356 357 362 364 365 369 369 369 369 368 365 363 365 361 351 356 359 353 349 356 351 349 348 350 351 348 350 346 347 349
334 341 343 343 345 351 354 356 359 365 363 358 361 358 358 364 361 358 368 370 369 369 366 364 359 365 361 366 366 361 356 351 356 348 348 340 343 348 348 350 347 346 348
332 337 340 343 344 348 352 356 363 364 363 366 363 365 358 357 353 348 351 366 369 368 367 366 367 366 349 346 361 361 359 353 356 355 347 338 335 344 352 347 348 347 349
333 337 339 341 342 347 352 357 360 365 364 369 363 366 359 355 356 358 363 366 368 366 367 369 368 365 346 336 337 358 359 358 351 354 353 355 350 342 339 351 350 352 351
334 335 339 342 344 347 349 356 359 365 365 366 371 362 361 361 351 357 353 363 363 368 368 372 371 364 353 346 339 351 361 360 356 351 352 355 352 353 345 339 346 352 353
334 335 340 343 344 347 349 352 358 363 368 367 368 368 361 359 363 359 352 360 364 366 370 371 373 368 362 355 358 362 366 363 361 357 356 351 350 344 344 338 345 345 350
335 335 338 340 342 344 347 349 357 361 364 366 366 369 369 368 360 350 360 351 347 350 363 371 371 370 366 366 369 368 367 366 363 363 358 359 351 353 353 349 343 339 344
337 336 339 341 343 344 346 349 357 360 362 365 366 370 369 364 362 370 349 346 338 348 346 362 370 365 367 371 368 366 364 365 365 364 365 362 358 358 354 351 348 340 342
338 336 338 338 341 343 347 355 358 361 362 363 367 368 369 368 364 371 359 348 342 341 340 344 359 368 369 373 372 366 366 366 365 365 365 364 360 361 361 355 350 341 336
339 338 338 339 340 341 345 357 361 362 362 361 365 365 367 370 369 374 353 338 338 339 339 339 343 366 370 372 371 364 364 365 366 362 360 362 361 361 362 358 356 353 344
337 338 339 340 340 342 344 349 357 360 362 360 361 363 365 366 368 367 368 339 340 337 335 335 347 364 368 369 370 365 365 364 369 364 362 361 361 356 359 358 358 355 353
338 340 340 340 339 342 345 347 353 357 359 359 362 363 365 365 362 363 368 358 337 337 336 350 361 366 370 370 367 367 365 365 364 360 360 360 359 359 360 356 355 356 352
340 340 341 340 340 342 348 350 355 357 358 359 360 360 362 363 361 363 369 361 367 365 367 372 372 372 373 370 368 368 369 368 365 364 363 362 363 358 358 359 357 355 355
340 339 340 341 341 344 352 354 355 357 359 359 357 360 363 364 364 367 367 374 373 372 372 372 374 376 373 371 370 370 368 368 365 364 362 361 359 357 358 357 357 354 352
338 340 339 340 342 350 355 357 357 361 363 366 364 368 367 371 372 373 371 371 374 373 373 373 374 373 368 364 370 370 368 366 362 361 361 359 356 351 349 350 351 350 351
339 341 344 343 344 355 356 359 360 366 368 365 361 368 371 372 373 375 374 376 370 372 372 371 372 373 361 348 350 361 364 363 361 356 355 356 354 353 344 343 342 343 344
341 343 345 343 345 357 359 360 362 369 365 363 365 366 371 370 373 375 371 375 370 365 362 370 368 364 357 342 346 350 366 359 359 357 356 352 352 346 349 347 341 341 339
340 347 343 342 345 357 360 366 366 366 361 362 364 370 371 370 372 373 371 374 370 369 365 368 371 361 340 336 343 350 366 361 358 356 355 352 350 335 337 342 349 351 352
343 348 345 341 346 356 362 365 365 366 360 360 364 370 370 371 372 372 371 373 370 368 369 366 367 355 342 328 330 339 362 358 357 356 344 348 341 329 330 338 344 347 349
339 343 345 343 349 354 363 364 363 362 360 363 365 371 371 369 369 372 373 374 371 369 367 365 366 344 344 323 324 333 356 354 350 351 334 328 331 325 325 337 341 339 341
347 348 347 345 350 355 363 362 363 361 362 365 368 370 369 369 373 374 374 369 367 366 366 362 358 354 346 328 320 323 347 344 345 345 338 329 323 322 321 321 333 331 330
349 350 351 349 354 359 362 362 362 367 368 366 367 367 368 370 373 374 371 369 366 363 361 357 355 350 338 324 319 319 322 328 342 337 332 327 319 319 321 328 323 325 329
347 351 358 363 360 364 364 362 367 368 365 364 365 367 370 372 374 369 368 365 366 359 356 352 350 343 336 330 320 320 322 323 335 333 324 320 320 320 320 322 323 326 331
344 348 355 359 362 369 366 367 368 368 363 362 365 369 371 371 371 370 369 364 361 357 354 351 348 345 338 333 333 333 330 325 332 327 331 328 328 324 327 328 328 329 328
347 355 358 363 363 366 365 368 368 366 365 366 369 370 371 369 368 343 350 360 352 347 353 351 350 344 341 336 322 326 339 336 318 328 337 331 331 329 328 329 326 325 325
357 359 362 362 361 362 364 365 369 372 368 368 368 368 368 363 340 334 326 310 307 307 310 318 331 322 316 305 305 305 307 308 308 329 334 329 327 325 324 324 324 324 322
Wind_Speed
17 17 15 15 16 16 15 12 10 11 9 5 7 3 5 2 6 5 9 7 5 3 5 4 6 4 5 5 8 5 5 1 3 3 1 2 5 5 5 1 2 3 5
18 17 16 16 16 15 15 12 10 10 6 6 5 7 8 4 3 3 2 6 8 7 4 4 2 6 4 2 3 4 3 2 4 4 3 3 2 5 8 5 6 8 7
19 20 18 17 15 15 14 12 7 10 7 7 5 3 3 6 6 3 8 5 7 6 5 5 4 4 7 3 2 5 5 2 5 7 4 2 2 3 3 8 7 9 7
19 20 22 19 18 16 16 15 12 12 9 7 6 5 4 5 6 5 5 5 6 8 8 6 5 6 1 2 4 6 3 3 4 6 6 4 4 3 3 4 7 8 8
21 22 22 20 20 18 16 16 14 12 10 9 6 6 6 4 2 7 13 4 6 7 6 4 3 6 4 4 7 6 4 4 2 2 1 2 2 1 2 2 4 6 9
22 20 20 20 16 17 17 17 17 13 10 11 8 7 9 7 1 5 15 7 3 6 6 5 3 5 7 10 11 8 5 3 2 2 2 3 2 2 3 3 4 7 5
21 20 20 19 18 18 18 16 18 15 12 12 10 8 7 7 8 8 4 4 2 3 2 6 5 3 6 5 3 3 2 3 2 1 3 3 3 3 1 3 2 1 1
20 21 18 16 19 18 17 15 18 15 15 12 11 8 8 5 4 2 6 2 5 6 19 6 6 4 5 2 5 5 4 5 4 4 3 3 4 2 3 2 2 2 1
19 21 21 18 20 17 16 15 18 15 15 14 10 10 8 7 5 4 8 14 16 10 12 6 7 6 5 4 2 3 5 5 4 4 4 4 4 3 3 3 1 3 3
18 20 19 18 17 19 17 20 18 16 15 14 12 11 10 8 6 4 18 17 13 18 14 8 13 4 3 1 3 5 5 3 3 4 5 3 4 3 3 2 2 2 1
19 18 18 17 16 17 16 16 17 15 14 14 14 12 11 10 7 5 8 11 11 9 9 9 14 7 5 6 5 5 3 5 2 5 5 3 4 4 4 3 3 3 2
20 17 18 19 18 17 15 15 16 15 14 14 13 12 12 10 11 8 7 18 10 7 6 13 6 4 5 4 4 4 2 3 4 4 4 4 3 5 4 4 6 3 5
19 17 18 18 17 16 15 15 16 15 15 14 14 14 13 12 11 11 7 8 10 12 7 5 3 3 3 3 4 3 3 1 1 2 4 5 5 5 3 2 3 4 3
18 17 17 18 17 18 16 16 16 15 14 13 13 12 12 10 9 10 9 5 7 7 6 6 6 3 3 4 3 4 2 4 5 4 0 4 5 5 5 3 3 4 3
19 16 18 17 15 16 16 16 15 13 12 10 10 9 11 9 8 7 9 8 7 7 6 6 5 5 5 6 5 4 5 1 4 5 6 5 3 2 3 2 4 5 4
13 16 13 18 16 19 17 16 15 11 11 11 9 8 10 9 8 7 6 7 7 6 7 8 6 5 3 4 9 2 3 3 6 6 6 6 9 0 1 3 5 3 3
12 15 14 18 18 20 18 16 15 12 11 10 9 8 11 10 9 7 7 8 8 8 10 7 6 7 4 3 8 5 3 6 4 3 2 4 6 9 7 4 6 7 9
13 13 14 17 18 19 16 14 14 14 13 11 12 10 12 11 10 9 9 9 6 6 8 9 7 8 5 2 5 1 2 5 3 5 4 3 5 7 7 8 7 6 5
14 11 14 16 18 21 19 17 15 14 15 15 14 13 14 13 12 11 11 9 9 6 7 7 9 9 7 6 2 3 2 5 5 5 7 4 7 7 8 6 8 5 5
11 15 17 17 18 18 21 20 18 17 17 17 16 15 14 13 13 13 12 10 8 7 5 6 7 10 7 3 5 4 4 3 2 8 6 11 5 4 6 5 5 6 6
5 14 14 14 15 18 20 18 17 19 16 14 13 13 13 13 12 12 11 10 10 9 7 9 9 9 5 5 7 10 5 5 4 5 5 4 4 8 10 9 6 5 7
9 7 8 10 9 16 18 17 14 11 12 13 13 13 13 11 11 12 10 11 9 9 9 11 9 7 6 4 7 9 8 5 4 5 5 5 6 5 8 5 7 10 9
4 1 2 4 11 10 13 14 11 11 13 13 14 13 13 12 12 12 12 10 10 10 11 9 8 7 5 4 3 6 5 4 3 5 5 3 4 2 1 3 9 6 4
4 6 4 5 9 12 12 10 11 11 12 14 14 14 14 12 12 9 9 9 10 10 9 10 9 10 9 7 6 5 4 4 4 5 4 4 4 4 5 4 5 3 5
3 5 4 6 11 11 10 10 12 13 13 13 14 14 12 12 12 7 2 5 3 5 10 10 10 12 10 8 7 4 3 3 4 1 4 4 4 3 1 3 4 3 3
7 4 5 10 11 10 10 10 10 10 13 12 11 11 10 10 9 8 7 18 14 9 6 9 10 5 17 16 15 11 10 8 6 2 3 3 2 2 4 3 2 4 5
Wind_Direction
183 167 185 186 162 157 160 194 178 147 151 157 191 171 219 195 184 192 172 166 147 188 201 282 147 166 183 128 181 169 158 206 134 106 187 195 200 213 226 177 276 218 221
182 168 183 184 173 161 163 179 178 147 167 188 193 179 196 184 35 8 270 171 157 195 214 211 240 185 157 150 129 139 149 140 179 189 151 158 235 212 220 198 221 233 232
190 180 183 184 186 165 161 170 199 155 181 228 205 146 115 122 170 187 250 197 152 180 201 192 163 182 90 38 324 199 193 142 187 211 160 157 210 152 203 192 211 223 219
194 185 179 192 185 168 167 169 182 162 186 223 210 176 214 216 214 166 174 138 189 213 175 195 163 109 132 169 268 255 178 170 201 199 200 172 137 183 147 211 217 213 207
190 194 188 186 185 173 174 167 172 170 187 212 244 154 220 208 336 88 40 252 199 233 174 163 161 133 146 221 228 231 185 185 201 247 201 234 233 260 131 209 221 209 207
187 197 191 178 189 174 173 169 168 178 192 191 202 200 215 240 180 122 167 195 191 203 151 156 166 174 166 193 213 197 161 201 321 340 275 221 226 233 162 212 211 202 215
183 186 193 181 177 177 176 172 167 171 183 188 191 199 238 244 139 187 127 154 194 16 216 149 160 210 212 180 152 140 220 206 245 247 302 319 317 336 313 147 247 178 335
182 185 191 183 172 177 177 168 162 168 175 187 189 199 211 239 259 166 113 178 48 38 353 254 154 207 218 245 174 184 224 170 188 210 275 311 300 351 15 290 95 319 228
190 180 181 190 171 173 169 154 159 168 176 189 188 192 193 233 221 249 156 78 70 43 278 315 293 199 192 206 152 231 217 166 184 221 201 245 281 311 311 326 311 199 287
190 177 177 184 174 170 167 147 158 169 177 190 187 188 192 204 251 247 107 124 136 182 203 274 282 245 156 179 242 282 223 163 243 223 180 232 264 296 264 341 303 316 217
180 179 172 173 173 167 166 153 161 164 179 197 183 191 189 188 209 247 129 149 167 210 164 205 246 203 188 191 217 250 184 214 252 310 331 251 296 299 297 293 308 329 344
169 184 172 170 171 164 157 163 164 173 183 197 177 184 185 186 179 214 178 149 181 202 202 217 200 220 170 197 203 244 21 191 233 264 276 289 276 282 274 305 307 318 321
159 183 172 167 166 157 157 162 165 180 180 191 180 184 182 190 185 180 211 190 168 178 181 188 171 196 197 189 215 245 331 9 294 330 281 252 258 256 272 269 286 291 331
158 184 172 163 165 164 164 165 172 176 181 180 188 181 182 189 193 169 179 193 158 167 179 195 179 182 203 187 250 214 208 230 214 187 32 297 307 19 355 332 328 290 311
165 181 176 162 170 162 161 160 172 170 172 163 193 179 175 178 189 176 172 166 169 167 195 184 180 203 199 211 175 169 189 106 29 349 20 25 69 108 53 324 341 345 345
188 179 180 157 167 155 162 162 166 160 154 163 175 186 171 174 182 181 180 164 168 180 197 183 180 182 88 34 93 96 142 70 48 37 14 347 31 263 80 295 290 295 290
192 179 184 165 161 159 162 168 164 147 154 163 178 162 171 178 185 183 168 167 175 174 215 174 185 113 125 63 94 83 58 79 64 97 27 344 41 27 348 309 256 269 239
188 179 181 170 163 159 164 154 161 151 156 173 181 170 171 176 180 181 174 175 178 173 198 185 147 118 83 69 97 150 146 133 171 106 100 85 77 35 3 333 308 292 275
179 194 180 205 169 157 159 159 167 164 174 182 183 176 174 178 176 181 174 171 186 183 182 168 133 119 110 57 35 256 211 188 155 128 39 43 65 22 9 327 319 345 340
201 191 190 201 161 155 157 162 171 178 186 183 183 174 172 174 176 175 175 166 168 171 157 159 123 110 120 75 1 3 278 168 85 111 91 56 54 21 14 345 348 335 22
227 178 190 195 167 163 159 168 175 187 186 182 177 171 174 177 178 178 164 161 165 158 156 134 128 110 97 48 17 18 47 26 357 122 115 72 40 24 1 345 17 344 315
303 179 187 177 187 158 160 170 181 168 174 175 175 175 177 184 176 169 163 160 166 151 140 133 124 112 99 59 55 66 67 5 7 55 74 106 70 26 358 25 347 339 325
294 222 188 172 133 141 151 159 154 165 168 172 175 173 180 188 164 166 165 164 166 155 150 148 147 138 143 135 135 124 120 82 93 91 113 107 314 205 194 354 359 349 345
188 215 200 129 129 127 133 149 146 150 171 174 173 174 177 168 163 168 171 170 169 169 165 163 168 152 159 162 176 178 176 149 141 128 177 174 131 71 138 178 80 13 8
151 124 164 112 116 122 138 137 145 162 174 177 174 175 174 163 162 80 170 194 132 171 177 186 176 161 170 156 132 114 117 80 86 254 173 191 188 170 128 95 77 64 40
103 95 106 119 131 133 137 138 154 175 174 181 175 178 167 149 130 120 89 40 18 352 111 118 129 57 110 133 119 116 111 97 61 170 216 144 97 44 56 45 57 74 41